Regional Weather Roundup
Issued by NWS

Home | Current Version | Previous Version | Graphics & Text | Print | Product List | Glossary On
Versions: 1 2 3 4 5 6 7 8 9 10 11 12 13 14 15 16 17 18 19 20 21 22 23 24 25 26 27 28 29 30 31 32 33 34 35 36 37 38 39 40 41 42 43 44 45 46 47 48 49 50
000
ASUS45 KBOU 292107
RWRCO

WEATHER ROUNDUP FOR COLORADO
NATIONAL WEATHER SERVICE DENVER/BOULDER CO
300 PM MDT SUN MAR 29 2015

NOTE: "FAIR" INDICATES FEW OR NO CLOUDS BELOW 12000 FEET WITH NO
SIGNIFICANT WEATHER AND/OR OBSTRUCTIONS TO VISIBILITY.

COZ001>005-013-030-031-292200-
...NORTHWEST COLORADO...

CITY           SKY/WX    TMP DP  RH WIND       PRES   REMARKS
CRAIG          SUNNY     63  14  15 W9G20     30.24F
HAYDEN         SUNNY     59  12  15 W14       30.25F
MEEKER         SUNNY     64  11  12 MISG      30.24F
MOUNT WERNER   NOT AVBL
STEAMBOAT SPGS SUNNY     58  14  18 W6        30.26F
WALDEN         MOSUNNY   54   5  14 W13G18    30.27F
$$

COZ006>008-011-292200-
...WEST CENTRAL VALLEYS...

CITY           SKY/WX    TMP DP  RH WIND       PRES   REMARKS
GRAND JUNCTION SUNNY     71   6   8 W6        30.16F
MONTROSE       SUNNY     71   2   6 N9        30.21F
EAGLE          SUNNY     66   9  10 SW20G25   30.24F
RIFLE          SUNNY     70   9   9 VRB5      30.19F
DELTA          SUNNY     74   5   7 CALM      30.18F
NUCLA          SUNNY     72   5   7 NW9       30.25F
$$

COZ017>023-064>068-292200-
...SOUTHWEST COLORADO...

CITY           SKY/WX    TMP DP  RH WIND       PRES   REMARKS
DURANGO        SUNNY     71  19  14 SW13G18   30.20F
CORTEZ         SUNNY     73  13  10 VRB3G20   30.20F
PAGOSA SPRINGS PTSUNNY   66   9  10 S6        30.26F
TELLURIDE      SUNNY     59  -3   8 SW7       30.36F
WOLF CREEK PAS PTSUNNY   45   7  21 SW10G21   30.50F
$$

COZ009-010-012-014-032>034-037-058>063-292200-
...CENTRAL COLORADO...

CITY           SKY/WX    TMP DP  RH WIND       PRES   REMARKS
ASPEN          SUNNY     61  13  15 NW10      30.27F
BUENA VISTA    SUNNY     64 -10   5 N15G25    30.25F
COPPER MTN     SUNNY     43  -9  11 W25       30.44F
BERTHOUD PASS  FAIR      32  27  80 W23G31    30.45S WCI  19
COTTONWOOD PAS SUNNY     61 -18   3 NE3       30.35F
GUNNISON       SUNNY     63  10  13 SW12G21   30.28F
KREMMLING      SUNNY     63  -6   6 W10G20    30.27F
LEADVILLE      SUNNY     47   3  16 W12G22    30.35F
SALIDA         SUNNY     69   2   7 NW5       30.29F
SUNLIGHT       SUNNY     48  12  23 SW3       30.46S
WILKERSON PASS SUNNY     50   1  13 W6        30.43F
$$

COZ069>075-292200-
...SAN LUIS VALLEY/SANGRE DE CRISTO MOUNTAINS...

CITY           SKY/WX    TMP DP  RH WIND       PRES   REMARKS
ALAMOSA        MOSUNNY   68  11  11 MISG      30.23F
LA VETA PASS   SUNNY     46  25  42 NE9       30.39F
SAGUACHE       SUNNY     68   1   7 N13G32    30.26F
$$

COZ035-036-038>040-292200-
...NORTHERN COLORADO FRONT RANGE...

CITY           SKY/WX    TMP DP  RH WIND       PRES   REMARKS
DENVER INTL AP MOSUNNY   59  24  26 SE9G17    30.22F
DMNS CITY PARK   N/A     61  24  23 E5G14     30.20F
AURORA         MOSUNNY   59  24  25 E10       30.23F
FRONT RANGE AP MOSUNNY   59  27  29 E5        30.23F
ERIE MUNI ARPT SUNNY     62  19  19 SE6       30.20F
BOULDER MUN AP SUNNY     61  23  23 S7        30.19F
CENTENNIAL     MOSUNNY   58  25  28 E10       30.22F
BROOMFIELD     MOSUNNY   57  21  24 SE12G182  30.22F
FORT COLLINS   SUNNY     63  25  23 SE9G17    30.20F
LONGMONT       SUNNY     65  23  20 S10G18    30.21F
$$

COZ041-046-047-076>085-087-088-292200-
...PIKES PEAK/PALMER DIVIDE AND SOUTHERN FOOTHILLS...

CITY           SKY/WX    TMP DP  RH WIND       PRES   REMARKS
COLO. SPRINGS  MOSUNNY   61  21  21 S12G22    30.25F
A. F. ACADEMY  SUNNY     59  21  22 S17       30.24F
ELLICOTT       SUNNY    N/A N/A N/A W6        30.25F
FALCON         SUNNY     59  21  22 S12       30.28F
FORT CARSON    SUNNY     61  21  21 S13G24    30.23F
LIMON          SUNNY     58  21  24 N9        30.24F
MONUMENT HILL  SUNNY     55  23  28 E6G17     30.25F
TRINIDAD       SUNNY     62  20  19 SE9       30.26F
$$

COZ042>045-048>051-090-091-292200-
...NORTHEAST COLORADO...

CITY           SKY/WX    TMP DP  RH WIND       PRES   REMARKS
GREELEY ARPT   SUNNY     64  21  19 SE8       30.17F
AKRON          SUNNY     61  22  22 N15       30.21F
BURLINGTON     SUNNY     64  20  18 N17       30.21F
WRAY           SUNNY     66  17  15 N14G22    30.19F
STERLING       SUNNY     63  27  25 NW8       30.19F
HOLYOKE        NOT AVBL
FORT MORGAN    SUNNY    N/A N/A N/A N9        30.20F
$$

COZ086-089-092>099-292200-
...SOUTHEAST COLORADO...

CITY           SKY/WX    TMP DP  RH WIND       PRES   REMARKS
PUEBLO         SUNNY     65  20  17 SE13      30.22F
LA JUNTA       SUNNY     68  20  16 VRB7G16   30.22F
LAMAR          SUNNY     70  19  14 N16G23    30.19F
SPRINGFIELD      N/A     68  20  16 N21       30.22F
$$


USA.gov is the U.S. government's official web portal to all federal, state and local government web resources and services.